This is the latest recevied weather packets stored in our database for station/object G4KVI. If no packets are shown the sender has not sent any weather packets the latest 10 day(s).
| Time | Temp. | Humidity | Pressure | Rain* | Wind** | Luminosity | Snow |
|---|---|---|---|---|---|---|---|
| 1787682604 | 23.33° C | 44% | 1012.5 hPa | 0 mm | - | 15 W/m² | - |
| 1787682304 | 23.89° C | 44% | 1012.4 hPa | 0 mm | - | 19 W/m² | - |
| 1787682004 | 23.89° C | 43% | 1012.3 hPa | 0 mm | - | 20 W/m² | - |
| 1787681704 | 23.89° C | 43% | 1012.3 hPa | 0 mm | - | 20 W/m² | - |
| 1787681404 | 23.89° C | 43% | 1012.2 hPa | 0 mm | - | 25 W/m² | - |
| 1787681104 | 23.89° C | 43% | 1012.2 hPa | 0 mm | - | 32 W/m² | - |
| 1787680804 | 23.89° C | 43% | 1012.3 hPa | 0 mm | - | 38 W/m² | - |
| 1787680504 | 23.89° C | 43% | 1012.2 hPa | 0 mm | - | 41 W/m² | - |
| 1787680204 | 23.89° C | 43% | 1012.4 hPa | 0 mm | - | 49 W/m² | - |
| 1787679904 | 23.89° C | 42% | 1012.4 hPa | 0 mm | - | 59 W/m² | - |
| 1787679604 | 23.89° C | 42% | 1012.3 hPa | 0 mm | - | 65 W/m² | - |
| 1787679304 | 23.89° C | 43% | 1012.3 hPa | 0 mm | - | 70 W/m² | - |
| 1787679004 | 23.89° C | 43% | 1012.3 hPa | 0 mm | - | 80 W/m² | - |
| 1787678704 | 23.89° C | 43% | 1012.3 hPa | 0 mm | - | 85 W/m² | - |
| 1787678404 | 23.89° C | 44% | 1012.2 hPa | 0 mm | - | 91 W/m² | - |
| 1787678104 | 23.89° C | 44% | 1012.3 hPa | 0 mm | - | 88 W/m² | - |
| 1787677804 | 23.89° C | 43% | 1012.3 hPa | 0 mm | - | 103 W/m² | - |
| 1787677504 | 23.89° C | 45% | 1012.5 hPa | 0 mm | - | 82 W/m² | - |
| 1787677204 | 23.89° C | 45% | 1012.3 hPa | 0 mm | - | 69 W/m² | - |
| 1787676904 | 23.89° C | 46% | 1012.4 hPa | 0 mm | - | 73 W/m² | - |
| 1787676604 | 24.44° C | 47% | 1012.2 hPa | 0 mm | - | 101 W/m² | - |
| 1787676304 | 24.44° C | 47% | 1012.2 hPa | 0 mm | - | 159 W/m² | - |
| 1787676004 | 23.89° C | 48% | 1012.1 hPa | 0 mm | - | 135 W/m² | - |
| 1787675704 | 23.89° C | 47% | 1012.2 hPa | 0 mm | - | 95 W/m² | - |
| 1787675404 | 23.89° C | 47% | 1012.3 hPa | 0 mm | - | 73 W/m² | - |
* Rain latest hour (hover to see other rain measurements)
** Current wind speed in m/s (hover to see current wind gust speed)